Regional Weather Roundup
Issued by NWS

Home | Current Version | Previous Version | Graphics & Text | Print | Product List | Glossary On
Versions: 1 2 3 4 5 6 7 8 9 10 11 12 13 14 15 16 17 18 19 20 21 22 23 24 25 26 27 28 29 30 31 32 33 34 35 36 37 38 39 40 41 42 43 44 45 46 47 48 49 50
000
ASUS43 KMKX 101810
RWRWI

WISCONSIN REGIONAL WEATHER ROUNDUP
NATIONAL WEATHER SERVICE MILWAUKEE/SULLIVAN WI
1200 PM CST SUN DEC 10 2017

NOTE: "FAIR" INDICATES FEW OR NO CLOUDS BELOW 12,000 FEET WITH NO
SIGNIFICANT WEATHER AND/OR OBSTRUCTIONS TO VISIBILITY.

WIZ001-002-006>008-014>016-023>028-101900-
NORTHWEST WISCONSIN

CITY           SKY/WX    TMP DP  RH WIND       PRES   REMARKS
SUPERIOR ARPT  CLOUDY    23  14  68 N6        30.01S WCI  16
6HR MIN TEMP:  22; 6HR MAX TEMP:  24;

ASHLAND        CLOUDY    21  14  74 N9        29.98R WCI  11
6HR MIN TEMP:  20; 6HR MAX TEMP:  22;

HAYWARD        CLOUDY    23  15  71 NW7       29.96R WCI  15
6HR MIN TEMP:  20; 6HR MAX TEMP:  23;

SIREN          PTSUNNY   25  16  67 N7        29.98S WCI  17
6HR MIN TEMP:  21; 6HR MAX TEMP:  27;

CUMBERLAND     CLOUDY    25  18  74 NW14      29.96S WCI  13
RICE LAKE      CLOUDY    25  18  74 NW6       29.98R WCI  18
6HR MIN TEMP:  20; 6HR MAX TEMP:  25;

CHETEK         CLOUDY    24  18  75 NW6       29.97R WCI  17
6HR MIN TEMP:  19; 6HR MAX TEMP:  25;

LADYSMITH      CLOUDY    24  19  80 NW10G16   29.95R WCI  13
6HR MIN TEMP:  18; 6HR MAX TEMP:  24;

EAU CLAIRE     CLOUDY    25  18  74 NW10      29.96S WCI  15
6HR MIN TEMP:  16; 6HR MAX TEMP:  25;

MENOMONIE      CLOUDY    27  19  71 NW10      29.97R WCI  18
6HR MIN TEMP:  16; 6HR MAX TEMP:  27;

NEW RICHMOND   CLOUDY    27  19  74 N8        29.98S WCI  18
6HR MIN TEMP:  15; 6HR MAX TEMP:  27;

OSCEOLA        CLOUDY    28  20  72 N7        30.01F WCI  20
6HR MIN TEMP:  18; 6HR MAX TEMP:  28;

$$

WIZ003>005-009-010-017-018-101900-
NORTH CENTRAL WISCONSIN

CITY           SKY/WX    TMP DP  RH WIND       PRES   REMARKS
MANITOWISH WTR CLOUDY    19  18  97 N8        29.87R WCI   9
6HR MIN TEMP:  15; 6HR MAX TEMP:  19;

ARBOR VITAE    FLURRIES  22  20  93 N13       29.85S WCI  10
6HR MIN TEMP:  17; 6HR MAX TEMP:  22;

WOODRUFF       FLURRIES  22  20  93 N13       29.85S WCI  10
6HR MIN TEMP:  17; 6HR MAX TEMP:  22;

RHINELANDER    CLOUDY    21  18  88 NW7       29.86R WCI  12
6HR MIN TEMP:  14; 6HR MAX TEMP:  21;

EAGLE RIVER    LGT SNOW  20  15  84 N12       29.84S WCI   7
6HR MIN TEMP:  13; 6HR MAX TEMP:  20;

LAND O LAKES   CLOUDY    19  15  85 N9        29.87S WCI   8
6HR MIN TEMP:  15; 6HR MAX TEMP:  20;

PHILLIPS       CLOUDY    20  19  93 NW8       29.89S WCI  10
6HR MIN TEMP:  15; 6HR MAX TEMP:  20;

TOMAHAWK       CLOUDY    21  17  85 N8        29.88S WCI  11
6HR MIN TEMP:  15; 6HR MAX TEMP:  21;

MEDFORD        CLOUDY    21  17  84 NW7       29.89R WCI  13
6HR MIN TEMP:  16; 6HR MAX TEMP:  21;

MERRILL        CLOUDY    23  19  84 NW9       29.89R WCI  13
$$

WIZ029-030-035-036-043>047-101900-
CENTRAL WISCONSIN

CITY           SKY/WX    TMP DP  RH WIND       PRES   REMARKS
WAUSAU         CLOUDY    23  18  81 NW10      29.89R WCI  12
6HR MIN TEMP:  16; 6HR MAX TEMP:  23;

MOSINEE        CLOUDY    23  19  86 NW7       29.90R WCI  15
MARSHFIELD     CLOUDY    23  19  85 NW12      29.90R WCI  12
6HR MIN TEMP:  18; 6HR MAX TEMP:  23;

STEVENS POINT  CLOUDY    22  18  82 NW8       29.91R WCI  13
6HR MIN TEMP:  16; 6HR MAX TEMP:  22;

WAUPACA        CLOUDY    27  19  72 NW9       29.91R WCI  18
6HR MIN TEMP:  20; 6HR MAX TEMP:  27;

WAUTOMA        CLOUDY    26  19  74 NW10      29.91R WCI  16
6HR MIN TEMP:  20; 6HR MAX TEMP:  26;

WISC RAPIDS    CLOUDY    24  18  77 N9        29.92R WCI  14
6HR MIN TEMP:  20; 6HR MAX TEMP:  24;

CAMP DOUGLAS   CLOUDY    27  19  74 N8        29.93R WCI  18
$$

WIZ011>013-019>022-031-037>040-048>050-101900-
NORTHEAST WISCONSIN

CITY           SKY/WX    TMP DP  RH WIND       PRES   REMARKS
ANTIGO         CLOUDY    21  18  88 NW9       29.86R WCI  10
6HR MIN TEMP:  14; 6HR MAX TEMP:  21;

SHAWANO        CLOUDY    26  19  76 NW5       29.89R WCI  20
6HR MIN TEMP:  17; 6HR MAX TEMP:  26;

OCONTO         CLOUDY    23  17  76 NW7       29.89R WCI  15
6HR MIN TEMP:  14; 6HR MAX TEMP:  23;

STURGEON BAY   FLURRIES  22  17  81 NW9       29.87R WCI  12
6HR MIN TEMP:  17; 6HR MAX TEMP:  23; 6HR PCP: TRACE;

GREEN BAY      CLOUDY    24  19  81 NW10      29.89R WCI  14
6HR MIN TEMP:  18; 6HR MAX TEMP:  24;

MANITOWOC      CLOUDY    23  17  78 NW15      29.88R WCI  10
6HR MIN TEMP:  17; 6HR MAX TEMP:  24;

APPLETON       CLOUDY    23  16  74 NW9       29.86S WCI  13
CLINTONVILLE   CLOUDY    25  18  74 NW7       29.90R WCI  17
OSHKOSH        CLOUDY    24  18  77 N9        29.89R WCI  14
6HR MIN TEMP:  20; 6HR MAX TEMP:  25;

$$

WIZ032>034-041-042-053>061-101900-
SOUTHWEST WISCONSIN

CITY           SKY/WX    TMP DP  RH WIND       PRES   REMARKS
LA CROSSE      CLOUDY    29  21  72 NW13      29.98R WCI  19
6HR MIN TEMP:  22; 6HR MAX TEMP:  30;

SPARTA         CLOUDY    27  20  77 NW7       29.96R WCI  19
6HR MIN TEMP:  21; 6HR MAX TEMP:  27;

VIROQUA        CLOUDY    27  23  85 NW7       29.92R WCI  19
6HR MIN TEMP:  17; 6HR MAX TEMP:  27;

BOSCOBEL       CLOUDY    30  21  69 NW7       29.96R WCI  23
6HR MIN TEMP:  15; 6HR MAX TEMP:  31;

PRAIRIE DU CHI CLOUDY    30  20  66 N9        29.97R WCI  22
6HR MIN TEMP:  22; 6HR MAX TEMP:  30;

PLATTEVILLE    CLOUDY    29  24  79 NW6       29.93R WCI  23
6HR MIN TEMP:  17; 6HR MAX TEMP:  30;

$$

WIZ056-057-062-063-064-067-068-101900-
SOUTH CENTRAL WISCONSIN

CITY           SKY/WX    TMP DP  RH WIND       PRES   REMARKS
REEDSBURG      CLOUDY    27  19  72 N8        29.91R WCI  19
6HR MIN TEMP:  20; 6HR MAX TEMP:  28;

BARABOO/DELLS  CLOUDY    27  19  70 NW9       29.90R WCI  18
6HR MIN TEMP:  21; 6HR MAX TEMP:  27;

LONE ROCK      CLOUDY    28  21  75 NW9       29.94R WCI  19
6HR MIN TEMP:  13; 6HR MAX TEMP:  29;

MINERAL POINT  CLOUDY    30  25  80 NW8       29.91R WCI  23
MADISON        CLOUDY    28  19  69 NW9       29.89S WCI  19
6HR MIN TEMP:  21; 6HR MAX TEMP:  28;

MIDDLETON      CLOUDY    29  21  71 NW10      29.90S WCI  20
6HR MIN TEMP:  21; 6HR MAX TEMP:  30;

WATERTOWN      CLOUDY    26  20  79 NW10      29.88S WCI  16
6HR MIN TEMP:  19; 6HR MAX TEMP:  26;

MONROE         CLOUDY    28  21  74 NW6       29.89R WCI  22
JANESVILLE     CLOUDY    30  21  69 NW10      29.88S WCI  21
$$

WIZ051-052-058>065-066-070>072-101900-
SOUTHEAST WISCONSIN

CITY           SKY/WX    TMP DP  RH WIND       PRES   REMARKS
MILWAUKEE      CLOUDY    28  19  69 W9        29.87S WCI  19
6HR MIN TEMP:  23; 6HR MAX TEMP:  28;

WAUKESHA       CLOUDY    25  18  74 NW12      29.87F WCI  14
MILWAUKEE/TIMM CLOUDY    27  18  69 W12       29.88S WCI  16
RACINE         CLOUDY    28  19  69 W10       29.89R WCI  19
6HR MIN TEMP:  22; 6HR MAX TEMP:  28;

BURLINGTON     CLOUDY    35  32  87 NW12      29.88R WCI  27
6HR MIN TEMP:  30; 6HR MAX TEMP:  35;

KENOSHA        CLOUDY    28  19  69 W13       29.88R WCI  17
6HR MIN TEMP:  23; 6HR MAX TEMP:  29;

FOND DU LAC    CLOUDY    25  17  72 N12       29.89R WCI  14
6HR MIN TEMP:  21; 6HR MAX TEMP:  25; 6HR PCP: TRACE;

SHEBOYGAN      CLOUDY    24  19  81 NW13      29.86S WCI  12
6HR MIN TEMP:  20; 6HR MAX TEMP:  24;

WEST BEND      CLOUDY    27  21  80 W12       29.86S WCI  16
JUNEAU         CLOUDY    24  18  77 NW8       29.89S WCI  16
6HR MIN TEMP:  19; 6HR MAX TEMP:  25;

$$

LSZ147-162-101900-
LAKE SUPERIOR

STATION/POSITION TIME  TEMP    WIND        PRES    WAVE
                       AIR SEA DIR/SP/G            HT/PER
                 (UTC) (F)     (DEG/KT/KT) (MB)    (FT/S)
DEVILS ISLAND    1800   19     340/ 11/ 14 1016.4F
SAXON HARBOR     1730   24                 1014.2R
$$

LMZ867-665-643>646-101900-
LAKE MICHIGAN

STATION/POSITION TIME  TEMP    WIND        PRES    WAVE
                       AIR SEA DIR/SP/G            HT/PER
                 (UTC) (F)     (DEG/KT/KT) (MB)    (FT/S)
NORTHPORT PIER   1740   25     310/ 13/ 15 1010.5S
KEWAUNEE LAKESHO 1742   24     310/  9/ 1



USA.gov is the U.S. government's official web portal to all federal, state and local government web resources and services.